Mitchell, SD

1:50 AM CDT on October 23, 2019 (GMT -0500)
Mitchell Municipal

Weather History for KMHE - May, 2019

Change the Weather History Date:

Wednesday, May 1, 2019

  Actual Average Record
Temperature  
Mean Temperature 44 °F 55 °F  
Max Temperature 47 °F 67 °F 98 °F (1959)
Min Temperature 40 °F 42 °F 19 °F (1909)
Degree Days  
Heating Degree Days 21 11  
Month to date heating degree days 21 11  
Since 1 July heating degree days 7709 7011  
Cooling Degree Days 0 0  
Month to date cooling degree days 0 0  
Year to date cooling degree days 0 2  
Moisture  
Dew Point 39 °F    
Average Humidity 82    
Maximum Humidity 93    
Minimum Humidity 71    
Precipitation  
Precipitation 0.01 in 0.08 in 1.91 in (1972)
Month to date precipitation 0.01 0.08  
Year to date precipitation 7.59 3.88  
Snow  
Snow 0.00 in - T in (2005)
Month to date snowfall 0.0  
Since 1 July snowfall 67.6  
Snow Depth 0.00 in    
Sea Level Pressure  
Sea Level Pressure 30.07 in    
Wind  
Wind Speed 7 mph (North)    
Max Wind Speed 12 mph    
Max Gust Speed 16 mph    
Visibility 6 miles    
Events Rain    
T = Trace of Precipitation, MM = Missing Value Source: NWS Daily Summary

Daily Weather History Graph

Daily Weather History Graph

Search for Another Location

Airport or City:

Astronomy

May. 01, 2019 Rise Set
Actual Time 6:24 AM CDT 8:34 PM CDT
Civil Twilight 5:53 AM CDT 9:06 PM CDT
Nautical Twilight 5:14 AM CDT 9:45 PM CDT
Astronomical Twilight 4:31 AM CDT 10:28 PM CDT
Moon 5:20 AM CDT (5/1) 5:15 PM CDT (5/1)
Length of Visible Light 15h 13m
Length of Day
14h 10m
Waning Crescent, 10% of the Moon is Illuminated
May 1
Waning Crescent
May 4
New
May 11
First Quarter
May 18
Full
May 26
Last Quarter

Hourly Weather History & Observations

Time (CDT) Temp. Windchill Dew Point Humidity Pressure Visibility Wind Dir Wind Speed Gust Speed Precip Events Conditions
12:53 AM 42.1 °F 37.1 °F 39.0 °F 89% 30.06 in 7.0 mi North 8.1 mph - N/A   Overcast
1:53 AM 42.1 °F 38.4 °F 39.0 °F 89% 30.06 in 4.0 mi NNE 5.8 mph - 0.00 in   Overcast
2:05 AM 42.1 °F 37.1 °F 39.0 °F 89% 30.02 in 6.0 mi NE 8.1 mph - N/A   Overcast
2:22 AM 42.1 °F 38.4 °F 39.0 °F 89% 30.02 in 7.0 mi NNE 5.8 mph - N/A   Overcast
2:36 AM 42.1 °F 38.4 °F 39.0 °F 89% 30.01 in 7.0 mi NNE 5.8 mph - N/A   Overcast
2:43 AM 42.1 °F 37.1 °F 39.0 °F 89% 30.02 in 7.0 mi NNW 8.1 mph - N/A   Overcast
2:53 AM 42.1 °F 37.7 °F 39.0 °F 89% 30.04 in 6.0 mi NNW 6.9 mph - N/A   Overcast
3:53 AM 41.0 °F 34.3 °F 37.9 °F 89% 30.04 in 7.0 mi NNW 11.5 mph - N/A   Overcast
4:26 AM 41.0 °F 35.8 °F 37.9 °F 89% 30.02 in 6.0 mi NNW 8.1 mph - N/A   Overcast
4:40 AM 41.0 °F 33.9 °F 37.9 °F 89% 30.01 in 6.0 mi NNW 12.7 mph - N/A   Overcast
4:53 AM 39.9 °F 32.9 °F 37.9 °F 93% 30.04 in 4.0 mi North 11.5 mph - N/A   Overcast
5:04 AM 39.9 °F 32.9 °F 37.9 °F 93% 30.01 in 3.0 mi North 11.5 mph - N/A   Overcast
5:18 AM 39.9 °F 33.4 °F 37.9 °F 93% 30.00 in 2.5 mi North 10.4 mph - N/A   Overcast
5:46 AM 39.9 °F 32.9 °F 37.9 °F 93% 30.00 in 1.8 mi North 11.5 mph - 0.00 in Rain Light Rain
5:53 AM 39.9 °F 32.5 °F 37.9 °F 93% 30.02 in 1.8 mi North 12.7 mph - 0.00 in Rain Light Rain
6:03 AM 39.9 °F 32.5 °F 37.9 °F 93% 30.00 in 2.0 mi North 12.7 mph - 0.00 in Rain Light Rain
6:53 AM 41.0 °F 34.3 °F 39.0 °F 93% 30.04 in 3.0 mi North 11.5 mph - 0.00 in   Overcast
7:00 AM 41.0 °F 35.2 °F 39.0 °F 93% 30.02 in 2.0 mi North 9.2 mph - N/A   Overcast
7:17 AM 41.0 °F 34.7 °F 39.0 °F 93% 30.02 in 1.8 mi North 10.4 mph - N/A   Overcast
7:53 AM 41.0 °F 35.2 °F 39.0 °F 93% 30.04 in 1.8 mi NNE 9.2 mph - N/A   Overcast
8:12 AM 42.1 °F 36.6 °F 39.9 °F 92% 30.02 in 3.0 mi NNE 9.2 mph - N/A   Overcast
8:29 AM 42.1 °F 36.6 °F 39.9 °F 92% 30.03 in 6.0 mi NNE 9.2 mph - N/A   Overcast
8:53 AM 43.0 °F 38.8 °F 39.9 °F 89% 30.07 in 10.0 mi NNE 6.9 mph - N/A   Overcast
9:53 AM 44.1 °F 42.5 °F 39.9 °F 85% 30.07 in 9.0 mi North 3.5 mph - N/A   Overcast
10:02 AM 44.1 °F 40.8 °F 39.9 °F 85% 30.04 in 6.0 mi NNE 5.8 mph - N/A   Overcast
10:07 AM 43.0 °F 41.3 °F 39.9 °F 89% 30.05 in 2.5 mi NNE 3.5 mph - N/A   Overcast
10:14 AM 43.0 °F 39.5 °F 39.9 °F 89% 30.04 in 2.0 mi NNE 5.8 mph - N/A   Overcast
10:25 AM 43.0 °F 40.3 °F 39.9 °F 89% 30.04 in 1.5 mi NE 4.6 mph - N/A   Overcast
10:39 AM 44.1 °F 40.1 °F 41.0 °F 89% 30.05 in 2.0 mi ENE 6.9 mph - N/A   Overcast
10:44 AM 44.1 °F 40.8 °F 39.9 °F 85% 30.05 in 3.0 mi ENE 5.8 mph - N/A   Overcast
10:53 AM 44.1 °F 42.5 °F 39.9 °F 85% 30.09 in 4.0 mi NE 3.5 mph - N/A   Overcast
11:02 AM 43.0 °F 39.5 °F 39.9 °F 89% 30.07 in 1.8 mi East 5.8 mph - 0.00 in Rain Light Rain
11:53 AM 44.1 °F - 39.9 °F 85% 30.10 in 2.5 mi Calm Calm - 0.00 in Rain Light Rain
12:00 PM 44.1 °F 42.5 °F 39.9 °F 85% 30.07 in 2.5 mi ENE 3.5 mph - 0.00 in Rain Light Rain
12:08 PM 44.1 °F 41.5 °F 39.9 °F 85% 30.07 in 4.0 mi ENE 4.6 mph - 0.00 in Rain Light Rain
12:45 PM 45.0 °F 42.6 °F 39.9 °F 82% 30.07 in 10.0 mi East 4.6 mph - 0.00 in Rain Light Rain
12:53 PM 45.0 °F 42.6 °F 39.9 °F 82% 30.10 in 10.0 mi East 4.6 mph - 0.00 in Rain Light Rain
1:11 PM 45.0 °F 43.5 °F 39.9 °F 82% 30.07 in 10.0 mi Variable 3.5 mph - 0.00 in Rain Light Rain
1:53 PM 45.0 °F 43.5 °F 39.0 °F 80% 30.09 in 8.0 mi North 3.5 mph - 0.00 in Rain Light Rain
2:48 PM 44.6 °F 42.2 °F 39.2 °F 81% 30.08 in 5.0 mi NNW 4.6 mph - 0.00 in Rain Light Rain
2:53 PM 45.0 °F 42.6 °F 39.9 °F 82% 30.10 in 6.0 mi NNW 4.6 mph - 0.01 in Rain Light Rain
3:12 PM 46.0 °F 43.1 °F 39.9 °F 79% 30.08 in 10.0 mi North 5.8 mph - 0.00 in Rain Light Rain
3:53 PM 46.0 °F 43.9 °F 37.9 °F 73% 30.10 in 10.0 mi NNW 4.6 mph - 0.00 in Rain Light Rain
4:15 PM 46.0 °F 43.9 °F 39.0 °F 76% 30.07 in 10.0 mi NNW 4.6 mph - 0.00 in Rain Light Rain
4:53 PM 46.0 °F 42.5 °F 39.9 °F 79% 30.11 in 10.0 mi NW 6.9 mph - 0.00 in Rain Light Rain
5:00 PM 46.0 °F 43.9 °F 39.9 °F 79% 30.08 in 10.0 mi NNW 4.6 mph - 0.00 in Rain Light Rain
5:53 PM 46.0 °F 44.8 °F 39.0 °F 76% 30.12 in 10.0 mi NW 3.5 mph - 0.00 in Rain Light Rain
6:53 PM 46.9 °F - 41.0 °F 80% 30.12 in 10.0 mi NW 6.9 mph - 0.00 in Rain Light Rain
7:01 PM 46.0 °F 43.1 °F 41.0 °F 83% 30.10 in 10.0 mi West 5.8 mph - 0.00 in   Overcast
7:53 PM 46.0 °F 43.9 °F 39.9 °F 79% 30.13 in 10.0 mi West 4.6 mph - 0.00 in   Overcast
8:49 PM 44.6 °F 42.2 °F 39.2 °F 81% 30.12 in 10.0 mi West 4.6 mph - N/A   Overcast
8:53 PM 45.0 °F 41.8 °F 39.9 °F 82% 30.14 in 10.0 mi West 5.8 mph - N/A   Overcast
9:10 PM 44.1 °F 38.1 °F 39.9 °F 85% 30.13 in 6.0 mi West 11.5 mph 16.1 mph 0.00 in Rain Light Rain
9:39 PM 44.1 °F 40.1 °F 41.0 °F 89% 30.13 in 7.0 mi West 6.9 mph - 0.00 in   Overcast
9:50 PM 44.6 °F 41.4 °F 41.0 °F 87% 30.13 in 10.0 mi West 5.8 mph - 0.00 in   Overcast
9:53 PM 44.1 °F 41.5 °F 41.0 °F 89% 30.15 in 10.0 mi West 4.6 mph - 0.00 in   Overcast
10:14 PM 44.1 °F 39.0 °F 39.9 °F 85% 30.13 in 10.0 mi WNW 9.2 mph - N/A   Overcast
10:31 PM 44.1 °F 39.5 °F 39.9 °F 85% 30.13 in 10.0 mi WNW 8.1 mph - N/A   Overcast
10:53 PM 43.0 °F 37.2 °F 39.9 °F 89% 30.16 in 10.0 mi NW 10.4 mph - N/A   Overcast
11:53 PM 43.0 °F 38.8 °F 39.9 °F 89% 30.17 in 10.0 mi West 6.9 mph - N/A   Overcast